EHI
67 62 55 52 48 40 34 31 31 30 32 38 43 44 43 43 42 41 38 37 38 36 34 34 33 30 26 24 23 23 24 21 16 13 13 14 17 19 17 14 11 9 8
64 61 57 54 49 41 35 34 34 35 35 38 42 45 45 45 46 44 40 38 40 40 38 36 34 30 28 26 25 23 21 20 18 16 16 16 18 21 21 17 12 9 7
58 57 55 51 47 43 40 40 41 42 41 41 43 46 48 49 49 47 44 41 42 42 41 39 35 32 30 26 22 20 18 19 19 18 18 18 19 21 22 17 12 9 7
53 52 49 46 45 45 45 46 47 48 45 44 45 47 49 50 48 48 48 46 44 41 40 39 36 32 28 21 16 15 16 17 17 17 17 18 19 19 19 15 10 8 7
52 50 48 47 47 48 48 49 50 48 46 46 47 47 46 42 40 43 46 45 44 41 39 38 33 26 21 17 13 11 13 14 14 14 15 16 19 19 17 12 8 6 7
54 52 51 51 51 50 49 48 47 46 45 45 47 46 42 32 27 30 35 38 41 41 40 36 28 20 16 14 11 8 9 10 11 12 13 15 18 19 15 9 6 6 7
54 52 51 51 51 50 48 48 47 46 45 44 44 44 40 29 19 17 21 29 38 41 39 34 27 20 17 15 13 10 7 7 7 10 12 13 15 16 13 7 5 6 7
48 47 46 46 46 47 47 48 49 47 46 43 42 42 39 30 18 9 12 23 35 39 35 32 29 24 18 16 16 14 10 8 6 7 8 9 8 9 7 5 4 4 5
40 40 40 41 42 42 43 46 46 45 43 40 39 40 40 32 19 8 9 21 32 35 32 29 28 24 17 15 17 17 14 11 7 5 4 3 2 2 2 2 2 3 3
35 35 36 38 40 39 39 41 41 40 38 34 33 36 38 31 18 7 8 19 29 30 28 25 22 18 13 12 15 17 15 11 7 5 3 1 1 1 1 1 2 3 3
32 31 33 36 37 37 38 40 39 36 32 28 28 31 32 26 16 7 7 16 24 25 24 21 17 12 8 8 11 13 11 9 6 5 3 3 2 2 2 2 3 4 5
29 29 32 34 33 33 37 38 38 35 30 26 25 26 26 23 16 8 4 8 16 20 20 18 13 8 4 4 6 6 5 5 5 5 3 3 3 3 4 4 5 6 7
29 29 32 33 31 31 32 34 33 32 29 25 22 22 25 25 19 11 4 2 7 12 14 12 8 3 2 3 2 1 1 3 6 6 4 2 1 2 4 5 5 6 6
29 29 29 29 27 28 29 27 26 26 25 23 21 22 25 26 21 13 7 4 4 6 8 7 5 2 3 4 2 1 1 3 5 5 3 1 0 0 2 4 4 4 4
28 27 24 21 19 22 23 19 17 17 16 15 16 18 20 21 18 13 11 9 6 5 6 6 6 5 6 6 5 3 3 4 4 3 1 0 0 0 1 2 3 2 1
27 23 19 15 14 15 15 12 9 9 7 6 7 9 11 11 10 8 9 8 6 5 7 8 8 8 9 9 8 6 4 3 3 2 0 0 0 0 0 1 1 1 0
22 19 16 13 11 10 10 9 8 7 5 3 2 2 3 3 3 3 4 3 2 4 6 8 9 9 10 10 9 7 5 4 3 2 0 0 0 0 0 0 0 0 0
16 15 13 11 9 8 7 8 9 10 9 8 4 1 0 0 1 1 1 2 2 4 6 7 8 9 9 10 9 7 6 5 4 2 0 0 0 0 0 0 0 0 0
12 11 9 8 7 5 4 5 7 10 12 12 8 3 0 0 0 0 2 4 5 5 6 6 7 7 8 9 8 7 6 6 4 1 0 0 0 0 0 0 0 0 0
8 6 5 5 5 4 3 3 4 7 10 12 10 5 2 1 2 2 4 6 6 6 6 6 6 7 7 7 6 5 5 6 4 1 0 0 0 0 0 0 0 0 0
4 3 2 3 4 3 3 3 3 5 8 10 10 7 3 3 5 5 6 6 7 7 7 7 7 7 7 6 4 4 4 5 3 1 0 0 0 0 0 0 0 0 0
3 3 3 3 3 3 3 3 3 4 6 9 9 6 3 4 6 6 6 7 8 7 7 7 7 6 5 4 3 3 4 4 3 1 0 0 0 0 0 0 0 0 0
3 3 3 3 3 3 3 3 3 3 5 7 7 4 3 5 6 6 6 7 7 7 7 7 6 4 3 3 3 3 4 4 4 2 1 0 0 0 0 0 0 0 0
3 3 3 3 3 3 4 3 3 3 3 4 4 3 3 5 6 6 6 6 6 6 7 7 6 4 3 3 3 3 4 3 3 2 2 1 0 0 0 0 0 0 0
3 3 3 3 3 4 4 3 3 2 2 2 2 3 3 4 5 5 5 5 5 5 7 7 6 4 4 3 3 4 3 2 1 1 2 1 0 0 0 0 0 0 0
2 3 3 3 3 4 4 3 2 2 1 0 1 3 3 2 3 3 4 4 4 5 6 6 6 6 5 4 3 4 3 1 0 0 1 1 0 0 0 0 0 0 0
Wind_Speed
8 7 6 6 6 6 5 5 5 4 4 3 3 4 4 4 4 3 4 4 4 4 4 4 3 3 3 2 2 2 2 1 2 2 1 1 1 1 2 2 3 4 5
7 6 6 5 6 6 6 6 5 5 5 5 5 4 5 5 4 5 6 5 4 4 4 4 3 3 3 3 2 3 2 2 2 3 2 2 2 2 2 3 3 4 3
7 6 6 5 5 6 6 5 5 6 6 6 6 6 5 5 5 5 6 5 5 4 4 4 3 3 3 3 2 3 3 3 2 2 3 2 1 1 1 2 2 1 3
6 6 5 5 5 5 5 5 6 5 6 6 6 6 6 6 5 5 5 5 5 4 4 4 3 3 3 3 4 3 3 3 3 3 2 2 1 1 1 1 2 1 1
4 5 5 5 4 4 4 5 5 5 7 6 6 6 6 6 6 6 5 6 5 4 4 3 3 3 3 3 3 1 2 2 2 2 2 2 1 1 1 2 2 1 1
2 2 3 3 3 3 3 3 4 4 5 5 6 6 6 7 6 7 6 5 4 4 4 3 3 3 3 4 3 2 2 2 2 2 2 2 2 1 1 2 1 1 2
2 2 2 2 3 3 3 3 3 3 4 4 5 5 6 6 7 6 7 5 5 4 4 3 4 3 3 2 3 4 3 4 4 3 3 2 2 1 1 2 2 2 3
2 2 2 2 2 2 2 3 3 2 3 4 4 5 4 6 8 7 6 6 5 5 5 5 4 3 3 2 2 2 2 2 3 3 2 2 2 1 2 3 3 3 2
1 1 2 2 2 2 3 3 3 3 3 3 4 5 5 5 7 7 6 5 5 5 5 5 4 4 4 2 2 3 2 2 2 2 2 2 2 3 2 2 2 2 2
2 2 1 1 2 3 3 3 2 2 3 3 3 4 5 4 6 7 7 5 5 4 4 4 5 5 5 4 3 3 3 3 2 2 2 3 4 5 6 4 2 2 2
2 2 2 2 3 4 3 3 2 3 3 3 4 4 4 4 5 7 7 4 4 4 3 3 3 5 5 5 4 3 4 3 3 4 4 4 4 3 3 3 3 2 2
3 3 3 3 4 4 2 3 3 3 4 4 4 4 3 3 4 6 8 7 5 4 3 2 2 4 4 4 4 4 5 4 3 4 3 3 3 2 2 2 3 3 3
3 3 3 4 4 4 3 4 4 4 4 4 4 4 3 2 3 5 6 7 6 3 2 1 3 4 4 4 6 6 4 4 4 4 3 3 2 2 2 2 2 3 4
4 4 4 4 5 4 4 4 4 4 4 4 3 3 2 1 2 2 3 3 3 3 2 2 3 5 4 4 3 4 4 4 3 3 3 2 1 2 2 2 2 1 2
4 5 5 6 5 4 4 3 4 3 3 3 3 2 2 2 2 2 2 2 2 2 2 1 2 2 2 2 2 2 2 1 1 1 1 1 1 1 2 2 2 2 2
5 5 6 5 4 4 4 3 3 4 4 4 4 3 2 2 4 4 3 3 4 5 3 3 3 3 3 2 2 2 1 1 1 1 1 1 1 2 1 1 1 1 2
6 6 6 6 5 5 4 3 3 3 2 2 3 3 3 2 2 3 3 3 4 6 3 3 3 3 3 2 2 2 2 1 1 1 1 1 1 2 2 2 2 1 1
6 7 6 5 5 5 4 4 3 3 3 2 2 3 4 5 4 4 3 2 1 3 3 2 2 2 1 1 1 1 1 1 1 1 1 1 1 2 2 2 2 1 1
6 6 5 5 5 5 4 4 3 4 3 2 2 2 4 5 5 4 4 3 3 3 2 2 1 1 1 1 1 1 1 1 1 1 1 1 2 1 2 2 2 2 2
5 6 6 5 5 5 4 4 4 3 3 2 2 2 3 3 3 3 3 3 3 3 3 2 2 2 2 1 1 1 1 1 1 2 2 1 1 1 2 2 2 2 2
6 5 5 4 4 5 4 4 4 3 3 2 1 2 5 3 3 3 3 3 3 3 3 2 2 2 2 2 1 2 2 1 1 1 1 1 1 1 2 2 2 2 2
5 3 3 4 4 4 4 4 3 3 3 3 1 2 5 3 2 2 2 2 2 2 2 2 2 2 2 2 2 2 1 1 1 1 1 1 1 2 2 2 2 2 2
5 5 4 4 3 3 4 4 3 3 3 3 2 2 3 2 2 2 2 2 2 2 2 2 2 1 1 1 1 1 1 1 2 1 1 2 2 2 3 2 3 3 3
5 4 4 4 4 3 4 4 3 3 2 2 1 1 2 2 2 2 2 2 2 2 2 2 2 2 2 1 0 0 0 1 1 1 2 3 3 3 3 3 3 4 4
4 3 3 4 3 3 3 4 3 3 2 2 1 1 1 2 2 2 2 2 2 1 1 1 2 2 3 2 1 1 1 1 1 2 2 3 4 4 4 4 4 4 4
4 3 3 3 3 3 3 3 3 3 2 2 2 2 1 2 2 1 1 1 1 1 1 1 1 1 1 2 2 2 3 2 2 2 3 3 4 3 4 4 5 5 5
Wind_Direction
190 196 200 193 201 206 216 222 222 226 226 222 214 215 212 214 219 228 247 247 238 246 256 251 249 255 274 290 291 293 282 274 273 289 300 312 304 234 185 203 197 187 187
187 191 199 198 200 208 213 217 219 221 223 222 218 220 224 218 213 223 240 246 235 237 247 260 266 265 254 270 287 286 288 275 248 263 281 285 262 229 204 228 233 205 177
185 189 195 203 209 217 218 213 217 219 223 225 218 219 225 224 217 220 228 240 241 239 238 241 249 263 267 264 267 272 279 283 271 257 259 256 260 238 218 253 260 237 203
179 186 191 202 215 223 228 221 221 222 223 228 225 223 222 219 223 226 226 229 240 242 242 241 238 240 244 249 252 251 263 282 278 272 260 256 251 248 204 243 262 249 234
173 187 194 200 210 221 227 236 229 224 229 228 229 229 226 222 226 222 225 226 229 238 243 242 239 227 226 233 257 255 267 270 276 274 272 275 274 282 272 272 262 258 255
194 192 184 193 202 219 229 240 243 235 235 229 226 226 228 234 224 212 212 233 231 229 234 234 233 214 201 199 216 234 240 252 271 276 278 271 276 293 297 286 295 293 272
167 176 184 200 209 217 229 230 238 246 243 237 232 225 224 223 227 219 216 224 229 225 224 222 243 229 199 207 211 213 229 245 245 255 266 268 270 267 281 289 286 279 269
182 193 194 209 228 235 233 246 243 243 248 244 242 235 229 224 216 217 217 226 232 227 221 218 218 215 229 211 232 235 231 249 254 241 253 266 266 278 266 262 260 261 263
214 221 225 211 217 229 233 248 248 238 241 248 243 240 233 218 210 207 205 229 230 228 225 224 214 193 179 193 223 245 247 246 285 265 244 238 238 256 264 275 267 263 274
241 232 227 210 219 232 236 243 248 250 248 257 257 246 239 224 200 201 203 231 234 231 224 217 216 198 183 194 215 239 245 251 250 268 263 249 239 237 235 228 240 254 268
282 265 251 244 247 239 233 234 242 243 252 256 259 250 240 226 197 199 202 225 239 235 230 222 206 172 183 201 217 232 234 245 253 243 241 233 229 224 214 203 208 230 247
295 281 270 259 261 259 243 242 244 244 248 247 248 249 234 212 198 200 204 223 242 244 242 222 178 180 194 214 224 224 230 246 248 245 239 234 230 226 213 207 211 215 221
288 285 281 272 260 260 252 246 245 244 246 248 242 244 240 209 187 193 204 220 234 238 255 210 189 199 212 227 225 225 225 233 236 240 241 237 228 219 215 217 224 226 233
283 283 270 262 258 251 241 245 242 241 241 248 254 257 256 219 173 179 203 209 213 229 239 210 207 218 234 233 223 223 226 236 242 244 246 245 235 231 234 232 234 232 252
283 278 274 266 259 252 244 246 247 257 252 241 254 253 246 238 184 157 187 204 194 197 188 193 205 210 220 216 213 219 223 237 266 288 291 285 269 262 266 258 245 247 244
282 279 279 276 269 262 248 238 224 230 224 219 231 242 239 171 155 158 178 199 192 177 175 206 214 215 213 207 204 212 230 234 233 233 265 286 288 286 291 298 288 275 275
284 283 283 285 285 277 263 244 240 223 212 211 224 215 198 180 165 169 179 185 190 177 199 222 223 214 212 207 203 198 217 227 230 242 248 255 260 270 274 278 280 279 287
278 280 278 278 279 283 284 273 262 261 239 220 201 192 188 179 179 176 160 145 189 201 222 228 229 214 200 195 197 211 221 211 207 244 279 285 283 281 278 282 291 298 297
280 279 283 288 288 287 288 290 282 272 264 235 160 155 182 179 174 182 172 200 208 219 228 229 218 202 190 182 194 207 207 200 208 242 242 263 269 278 290 293 299 300 292
279 275 276 283 287 288 286 282 276 267 264 253 196 169 160 176 189 189 194 215 217 215 219 217 204 195 187 188 194 199 205 200 202 231 239 239 262 275 283 291 294 298 294
287 279 268 279 283 285 282 279 277 264 261 259 225 167 172 196 202 190 196 212 221 220 213 215 208 189 185 183 187 203 217 221 225 255 272 264 266 271 276 281 288 288 297
288 283 281 286 291 296 292 284 283 279 274 263 216 170 175 196 208 192 197 208 230 236 214 205 220 204 182 186 199 213 222 225 240 256 271 278 281 275 270 267 272 277 275
285 284 281 278 277 281 280 282 284 281 275 262 233 194 178 205 211 192 200 218 217 230 225 208 204 197 167 168 177 178 211 239 253 250 255 263 269 271 275 277 275 275 272
285 285 280 276 273 271 278 281 279 278 285 276 251 208 181 189 208 213 215 208 205 226 219 198 190 180 173 168 118 91 350 295 285 257 250 257 262 260 261 263 264 270 272
283 283 284 287 287 288 288 289 285 278 267 257 257 252 214 216 229 223 217 197 175 193 213 199 188 183 172 160 147 122 132 167 217 285 267 256 252 252 258 262 264 270 267
293 294 296 297 296 292 286 283 277 269 264 257 240 214 214 231 245 258 244 216 194 192 203 188 194 192 167 153 143 148 160 172 204 248 266 258 251 248 253 257 263 267 271